Regional Weather Roundup
Issued by NWS

Home | Current Version | Previous Version | Text Only | Print | Product List | Glossary On
Versions: 1 2 3 4 5 6 7 8 9 10 11 12 13 14 15 16 17 18 19 20 21 22 23 24 25 26 27 28 29 30 31 32 33 34 35 36 37 38 39 40 41 42 43 44 45 46 47 48 49 50
000
ASHW40 PHFO 282043
RWRHI

WEATHER ROUNDUP FOR HAWAII
NATIONAL WEATHER SERVICE HONOLULU HI
1000 AM HST FRI APR 28 2017

THIS IS AN AUTOMATED REPORT THAT HAS NOT BEEN QUALITY CONTROLLED.

NOTE..."FAIR" INDICATES FEW OR NO CLOUDS BELOW 12,000 FEET WITH NO
SIGNIFICANT WEATHER AND/OR OBSTRUCTIONS TO VISIBILITY.

* - THESE SITES REPORT LIMITED FIELDS

HIZ001>004-282100-
KAUAI-NIIHAU-

CITY           SKY/WX    TMP DP  RH WIND       PRES   REMARKS
LIHUE APT      SUNNY     81  68  64 N12       30.01S
PORT ALLEN*      N/A     81 N/A N/A S5          N/A
POIPU*           N/A     82 N/A N/A NE3G9       N/A
PRINCEVILLE*     N/A     79 N/A N/A NW3         N/A
KOKOLE POINT*  NOT AVBL
MOLOAA DAIRY*    N/A     75  68  78 NW3G10      N/A
WAIMEA HTS*      N/A     82  68  61 S7          N/A
PUU OPAE*      NOT AVBL
PUU LUA*       NOT AVBL
MAKAHA RIDGE*    N/A     75  64  69 NE2G12      N/A
$$

HIZ005>011-282100-
OAHU-

CITY           SKY/WX    TMP DP  RH WIND       PRES   REMARKS
HONOLULU       MOSUNNY   82  63  52 VRB3      29.98F
KALAELOA       HVY RAIN  75  70  83 N3        30.00S
KANEOHE MCB    MOSUNNY   79  73  82 N12       29.97
WHEELER FIELD  MOSUNNY   76  69  80 NW14      30.00S
BELLOWS*         N/A    N/A N/A N/A VRB10       N/A
KAHUKU*          N/A    N/A N/A N/A NW2G8       N/A
WHEELER*         N/A    N/A N/A N/A NW10G17     N/A
WAIANAE HARBOR   N/A    N/A N/A N/A N12G20      N/A
DILLINGHAM*      N/A     68  63  83 SW2         N/A
KAHUKU TRN*      N/A     75  72  88 SE2         N/A
KAWAILOA*        N/A     72  68  88 N7G13       N/A
KII*             N/A     75  72  88 W3          N/A
MAKUA RANGE*     N/A    N/A N/A N/A W10G18      N/A
OAHU FOREST NW   N/A     75  66  73 N3G14       N/A
SCHOFIELD BRK*   N/A     75  73  94 MISG        N/A
SCHOFIELD S*   NOT AVBL
WAIANAE VLY*     N/A     82  77  83 N3G13       N/A  HX  91
KUAOKALA*        N/A     73  68  83 N14G23      N/A
HONOULIUULI*   NOT AVBL
MOKUOLOE IS*   NOT AVBL
PALEHUA*         N/A     72  68  88 SW3         N/A
WAIAWA PHB*    NOT AVBL
$$

HIZ012>013-282100-
MOLOKAI-

CITY           SKY/WX    TMP DP  RH WIND       PRES   REMARKS
MOLOKAI AIRPT  LGT RAIN  76  72  87 NW5       30.00F
KALAUPAPA      NOT AVBL
MAKAPULAPAI*     N/A     82  68  61 NE5         N/A
MOLOKAI 1*       N/A     75  64  69 SE2         N/A
PUU ALII*        N/A     68  64  87 S1          N/A
$$

HIZ016-282100-
KAHOOLAWE-

CITY           SKY/WX    TMP DP  RH WIND       PRES   REMARKS
KAHOOLAWE*     NOT AVBL
HAKIOAWA*        N/A     80  65  61 MISG      30.41F
HONOKANAIA*      N/A     82  66  59 W5G18     29.93S
KANELOA*         N/A     79  68  69 E13G22    30.06S
KEALIALALO*    NOT AVBL
LUA MAKIKA*    NOT AVBL
$$

HIZ014>015-282100-
LANAI-

CITY           SKY/WX    TMP DP  RH WIND       PRES   REMARKS
LANAI CITY     PTSUNNY   75  64  69 W9        30.03F
LANAI 1*         N/A     75  66  73 SW5         N/A
$$

HIZ017>028-282100-
MAUI-

CITY           SKY/WX    TMP DP  RH WIND       PRES   REMARKS
KAHULUI        PTSUNNY   82  66  58 VRB3      29.98S
KAPALUA-W MAUI NOT AVBL
HANA AIRPORT   NOT AVBL
HANA*            N/A     77 N/A N/A SE7G15      N/A
HALEAKALA SUMM   N/A     46  41  81 SW2G24      N/A
MAALAEA BAY*     N/A     84 N/A N/A S10         N/A
HALEAKALA*     NOT AVBL
KAUPO GAP*     NOT AVBL
KULA 1*          N/A     57  53  87 NW3         N/A
$$

HIZ023>026-282100-
BIG ISLAND OF HAWAII COAST AND LOWER SLOPES-

CITY           SKY/WX    TMP DP  RH WIND       PRES   REMARKS
KAILUA KONA    SUNNY     80  67  64 S8        29.97F
HILO           CLOUDY    81  66  60 SE12      30.00F
HONOKAA*         N/A     81 N/A N/A VRB1        N/A
KAWAIHAE MWT*    N/A     81 N/A N/A W8          N/A
KAWAIHAE*        N/A     79 N/A N/A W6        29.98F
SOUTH POINT*     N/A     70 N/A N/A NW10        N/A
UPOLU AIRPORT* NOT AVBL
KAMUELA*       PTCLDY    79  59  50 W8        30.08F
HAKALAU*         N/A     58  53  82 NE5         N/A
KALOKO-HONOKO*   N/A     84  68  58 S5G12     29.97F
PALI 2*          N/A     66  61  82 W3G9        N/A
KEALAKOMO*       N/A     77  66  69 E6          N/A
KAUPULEHU*       N/A     77  66  69 NE10G18     N/A
KAPAPALA*        N/A     67  65  94 NW5         N/A
LOWER KAHUKU*    N/A    N/A N/A N/A E2G8        N/A
PUHE CS*         N/A     81  64  57 W3          N/A
PUHO CS*         N/A     84  67  55 SW3         N/A
PTA KEAMUKU*     N/A     70  59  68 CALM        N/A
WAIKOLOA*        N/A     81  63  54 W8          N/A
$$

HIZ027>028-282100-
BIG ISLAND OF HAWAII INTERIOR AND SUMMMITS-

CITY           SKY/WX    TMP DP  RH WIND       PRES   REMARKS
BRADSHAW FIELD PTSUNNY   63  46  53 SW7       30.29S
MK VISITOR CEN   N/A     52  41  66 W6          N/A
MAUNA KEA*       N/A     41  -6  13 SW24        N/A
MAUNA LOA*       N/A     46  32  57 MISG        N/A
MAUNA LOA 1*   NOT AVBL
PTA KIPUKA*      N/A    N/A N/A N/A NW5G12      N/A
PTA RANGE 17*    N/A     63  48  59 W8G15       N/A
PTA WEST*        N/A     48  36  61 NW9         N/A
NENE CABIN*      N/A     52  52 100 SE3         N/A
AHUMOA*          N/A     60  53  78 W6G12       N/A
PTA PORTABLE*  NOT AVBL
PUU MALI*        N/A     54  52  94 NW8G14      N/A
$$

HIC003-282100-
NORTHWEST ISLANDS-

CITY           SKY/WX    TMP DP  RH WIND       PRES   REMARKS
MIDWAY ISLAND  MOSUNNY   70  52  52 E16       30.38S
MIDWAY NOS*      N/A     66 N/A N/A MISG      30.37R
FRENCH FRIGATE NOT AVBL
$$

PHZ110>124-180-282100-
BUOY REPORTS

STATION/POSITION TIME  TEMP    WIND        PRES    WAVE   SWELL
                       AIR SEA DIR/SP/G            HT/PER HT/DIR
                 (UTC) (F)     (DEG/KT/KT) (MB)    (FT/S) (FT/D)
BUOY 51001       2020   70 77   10/ 23/ 27 1019.0
BUOY 51101       1950   71 77  360/ 21/ 27 1019.3S   9/ 8   3/180
BUOY 51100       NOT AVBL
BUOY 51002       2020   77 78   50/ 12/ 14 1015.0
BUOY 51003       1950   77 79   10/  8/ 10 1015.9R   6/11   5/350
BUOY 51004       1950      78   90/ 12/ 14 1015.3R   7/ 8   7/ 90
BARBERS PT BUOY  NOT AVBL
WAIMEA BAY BUOY  2002      77                N/A     3/11   2/320
KAILUA BAY BUOY  2004      78                N/A     4/ 8   2/140
LANAI BUOY       2015      80                N/A     3/13   3/190
BARBERS PT 2     NOT AVBL
PAUWELA MAUI     2009      78                N/A     5/11   2/330
HILO             2012      78                N/A     6/ 8   2/ 10
KANEOHE BAY BUOY 2025      79                N/A     3/ 8   2/350
HANALEI KAUAI    2022      79                N/A     4/11   2/310
KAHULUI HARBOR   2018   78 78  360/  6/  7 1015.0
HONOLULU HARBOR  2018   77 79  230/  8/  9 1015.8
KILO NALU        NOT AVBL
HILO HARBOR      2018   80 75  160/ 15/ 19 1015.5
MOKUOLOE         1936   77 80  350/ 11/ 12 1015.8S
NAWILIWILI       2018   78      20/  8/ 13 1015.6
WHOTS BUOY       NOT AVBL
BUOY 51028       NOT AVBL
$$

......................KEY........................................
  SKY/WX - SKY CONDITIONS/PRESENT WEATHER
  TMP    - TEMPERATURE IN FAHRENHEIT
  DWPT   - DEWPOINT IN FAHRENHEIT
  RH     - RELATIVE HUMIDITY IN PERCENT
  WIND   - DIRECTION AND SPEED /MPH FOR ISLANDS...KTS FOR BUOYS/
  PRES   - MEAN SEA LEVEL PRESSURE IN INCHES OF HG
  VSB    - VISIBILITY IN MILES
  HX     - HEAT INDEX
  WCI    - WIND CHILL INDEX
  VRB    - VARIABLE WIND DIRECTION
  N/A    - NOT AVAILABLE




USA.gov is the U.S. government's official web portal to all federal, state and local government web resources and services.